Pratt, KS

6:14 AM CST on February 11, 2016 (GMT -0600)
Pratt Industrial

Weather History for KPTT - February, 2013

Change the Weather History Date:

Friday, February 15, 2013

  Actual Average (KP28) Record (KP28)
Temperature  
Mean Temperature 29 °F 38 °F  
Max Temperature 41 °F 50 °F 84 °F (1954)
Min Temperature 17 °F 26 °F -1 °F (1936)
Degree Days  
Heating Degree Days 36 27  
Month to date heating degree days 428  
Since 1 July heating degree days 3205  
Cooling Degree Days 0 0  
Month to date cooling degree days 0  
Year to date cooling degree days 0  
Moisture  
Dew Point 18 °F    
Average Humidity 67    
Maximum Humidity 86    
Minimum Humidity 38    
Precipitation  
Precipitation 0.00 in 0.03 in 0.75 in (1893)
Month to date precipitation 0.47  
Year to date precipitation 1.18  
Snow  
Snow 0.00 in 0.00 in - ()
Month to date snowfall 1.5  
Since 1 July snowfall 7.7  
Snow Depth -    
Sea Level Pressure  
Sea Level Pressure 30.36 in    
Wind  
Wind Speed 9 mph (NNW)    
Max Wind Speed 16 mph    
Max Gust Speed 21 mph    
Visibility 10 miles    
Events      
T = Trace of Precipitation, MM = Missing Value Source: NWS Daily Summary

Daily Weather History Graph

Daily Weather History Graph

Search for Another Location

Airport or City:

Trip Planner

Search our weather history database for the weather conditions in past years. The results will help you decide how hot, cold, wet, or windy it might be!

Date:

Astronomy

Feb. 15, 2013 Rise Set
Actual Time 7:24 AM CST 6:14 PM CST
Civil Twilight 6:57 AM CST 6:41 PM CST
Nautical Twilight 6:26 AM CST 7:12 PM CST
Astronomical Twilight 5:56 AM CST 7:42 PM CST
Moon 10:08 AM CST (2/15) No Moon Set
Length of Visible Light 11h 43m
Length of Day
10h 50m
Waxing Crescent, 30% of the Moon is Illuminated
Feb 15
Waxing Crescent
Feb 17
First Quarter
Feb 25
Full
Mar 4
Last Quarter
Mar 11
New

Hourly Weather History & Observations

Time (CST) Temp. Windchill Dew Point Humidity Pressure Visibility Wind Dir Wind Speed Gust Speed Precip Events Conditions
12:15 AM 30.2 °F 20.2 °F 21.2 °F 69% 30.32 in 10.0 mi North 12.7 mph - N/A   Scattered Clouds
12:35 AM 28.4 °F 19.7 °F 19.4 °F 69% 30.33 in 10.0 mi North 9.2 mph - N/A   Scattered Clouds
12:55 AM 28.4 °F 17.0 °F 19.4 °F 69% 30.33 in 10.0 mi North 15.0 mph 19.6 mph N/A   Clear
1:15 AM 26.6 °F 16.2 °F 19.4 °F 74% 30.34 in 10.0 mi North 11.5 mph - N/A   Clear
1:35 AM 24.8 °F 15.3 °F 19.4 °F 80% 30.35 in 10.0 mi North 9.2 mph - N/A   Clear
1:55 AM 24.8 °F 15.3 °F 17.6 °F 74% 30.35 in 10.0 mi North 9.2 mph - N/A   Clear
2:15 AM 23.0 °F 15.8 °F 17.6 °F 80% 30.36 in 10.0 mi North 5.8 mph - N/A   Scattered Clouds
2:35 AM 21.2 °F 12.6 °F 17.6 °F 86% 30.36 in 10.0 mi NNW 6.9 mph - N/A   Clear
2:55 AM 21.2 °F 12.6 °F 17.6 °F 86% 30.36 in 10.0 mi NNW 6.9 mph - N/A   Clear
3:15 AM 21.2 °F 12.6 °F 17.6 °F 86% 30.36 in 10.0 mi North 6.9 mph - N/A   Clear
3:35 AM 19.4 °F 8.6 °F 15.8 °F 86% 30.35 in 10.0 mi North 9.2 mph - N/A   Clear
3:55 AM 19.4 °F 8.6 °F 15.8 °F 86% 30.35 in 10.0 mi North 9.2 mph - N/A   Clear
4:15 AM 19.4 °F 10.4 °F 15.8 °F 86% 30.36 in 10.0 mi NNW 6.9 mph - N/A   Clear
4:35 AM 19.4 °F 10.4 °F 15.8 °F 86% 30.36 in 10.0 mi NNW 6.9 mph - N/A   Clear
4:55 AM 19.4 °F 11.5 °F 15.8 °F 86% 30.36 in 10.0 mi North 5.8 mph - N/A   Clear
5:15 AM 19.4 °F 9.5 °F 15.8 °F 86% 30.37 in 10.0 mi NNW 8.1 mph - N/A   Clear
5:35 AM 19.4 °F 9.5 °F 15.8 °F 86% 30.37 in 10.0 mi North 8.1 mph - N/A   Clear
5:55 AM 17.6 °F 9.3 °F 14.0 °F 86% 30.38 in 10.0 mi North 5.8 mph - N/A   Clear
6:15 AM 17.6 °F 10.7 °F 14.0 °F 86% 30.38 in 10.0 mi NNW 4.6 mph - N/A   Clear
6:35 AM 17.6 °F 7.3 °F 14.0 °F 86% 30.39 in 10.0 mi North 8.1 mph - N/A   Clear
6:55 AM 17.6 °F 6.4 °F 14.0 °F 86% 30.39 in 10.0 mi North 9.2 mph - N/A   Clear
7:15 AM 17.6 °F 8.2 °F 14.0 °F 86% 30.40 in 10.0 mi North 6.9 mph - N/A   Clear
7:35 AM 17.6 °F 7.3 °F 14.0 °F 86% 30.40 in 10.0 mi North 8.1 mph - N/A   Clear
7:55 AM 19.4 °F 10.4 °F 14.0 °F 80% 30.40 in 10.0 mi North 6.9 mph - N/A   Clear
8:15 AM 21.2 °F 12.6 °F 17.6 °F 86% 30.41 in 10.0 mi North 6.9 mph - N/A   Clear
8:35 AM 23.0 °F 13.9 °F 19.4 °F 86% 30.40 in 10.0 mi North 8.1 mph - N/A   Clear
8:55 AM 24.8 °F 14.6 °F 19.4 °F 80% 30.41 in 10.0 mi NNE 10.4 mph - N/A   Clear
9:15 AM 26.6 °F 16.8 °F 19.4 °F 74% 30.41 in 10.0 mi NNE 10.4 mph - N/A   Clear
9:35 AM 26.6 °F 16.8 °F 19.4 °F 74% 30.41 in 10.0 mi NNE 10.4 mph - N/A   Clear
9:55 AM 28.4 °F 21.2 °F 19.4 °F 69% 30.41 in 10.0 mi North 6.9 mph - N/A   Clear
10:15 AM 28.4 °F 22.2 °F 19.4 °F 69% 30.41 in 10.0 mi North 5.8 mph - N/A   Clear
10:35 AM 30.2 °F 25.4 °F 19.4 °F 64% 30.41 in 10.0 mi North 4.6 mph - N/A   Clear
10:55 AM 30.2 °F 25.4 °F 19.4 °F 64% 30.41 in 10.0 mi NNW 4.6 mph - N/A   Clear
11:15 AM 32.0 °F 27.5 °F 19.4 °F 60% 30.40 in 10.0 mi North 4.6 mph - N/A   Clear
11:55 AM 33.8 °F 28.6 °F 19.4 °F 56% 30.40 in 10.0 mi NNW 5.8 mph - N/A   Clear
12:15 PM 33.8 °F 29.6 °F 19.4 °F 56% 30.39 in 10.0 mi NNW 4.6 mph - N/A   Clear
12:35 PM 35.6 °F 29.2 °F 19.4 °F 52% 30.38 in 10.0 mi NW 8.1 mph - N/A   Clear
12:55 PM 35.6 °F 29.9 °F 19.4 °F 52% 30.38 in 10.0 mi WNW 6.9 mph - N/A   Scattered Clouds
1:15 PM 37.4 °F 31.4 °F 19.4 °F 48% 30.36 in 10.0 mi WNW 8.1 mph - N/A   Scattered Clouds
1:35 PM 37.4 °F 32.8 °F 19.4 °F 48% 30.35 in 10.0 mi NNW 5.8 mph 17.3 mph N/A   Clear
1:55 PM 37.4 °F 28.2 °F 19.4 °F 48% 30.35 in 10.0 mi WNW 16.1 mph 20.7 mph N/A   Scattered Clouds
2:15 PM 37.4 °F 28.2 °F 19.4 °F 48% 30.34 in 10.0 mi WNW 16.1 mph 20.7 mph N/A   Scattered Clouds
2:35 PM 39.2 °F 32.0 °F 19.4 °F 45% 30.34 in 10.0 mi NNW 11.5 mph 19.6 mph N/A   Scattered Clouds
2:55 PM 37.4 °F 29.3 °F 19.4 °F 48% 30.33 in 10.0 mi WNW 12.7 mph 19.6 mph N/A   Scattered Clouds
3:15 PM 37.4 °F 29.8 °F 19.4 °F 48% 30.32 in 10.0 mi NNW 11.5 mph 16.1 mph N/A   Scattered Clouds
3:35 PM 37.4 °F 28.5 °F 14.0 °F 38% 30.32 in 10.0 mi NNW 15.0 mph - N/A   Scattered Clouds
3:55 PM 39.2 °F 31.6 °F 15.8 °F 39% 30.32 in 10.0 mi NNW 12.7 mph 18.4 mph N/A   Scattered Clouds
4:15 PM 41.0 °F 33.1 °F 19.4 °F 42% 30.32 in 10.0 mi NW 15.0 mph - N/A   Scattered Clouds
4:35 PM 37.4 °F 30.8 °F 19.4 °F 48% 30.31 in 10.0 mi NNW 9.2 mph 12.7 mph N/A   Scattered Clouds
4:55 PM 37.4 °F 30.3 °F 19.4 °F 48% 30.31 in 10.0 mi NNW 10.4 mph - N/A   Scattered Clouds
5:15 PM 37.4 °F 30.8 °F 19.4 °F 48% 30.31 in 10.0 mi NNW 9.2 mph - N/A   Scattered Clouds
5:35 PM 35.6 °F 28.0 °F 21.2 °F 56% 30.31 in 10.0 mi NNW 10.4 mph - N/A   Clear
5:55 PM 35.6 °F 29.2 °F 23.0 °F 60% 30.30 in 10.0 mi NW 8.1 mph - N/A   Clear
6:15 PM 35.6 °F 32.8 °F 23.0 °F 60% 30.30 in 10.0 mi NW 3.5 mph - N/A   Clear
6:35 PM 33.8 °F 28.6 °F 23.0 °F 65% 30.31 in 10.0 mi NW 5.8 mph - N/A   Clear
6:55 PM 33.8 °F 29.6 °F 23.0 °F 65% 30.31 in 10.0 mi WNW 4.6 mph - N/A   Clear
7:15 PM 33.8 °F 28.6 °F 23.0 °F 65% 30.31 in 10.0 mi NW 5.8 mph - N/A   Scattered Clouds
7:35 PM 33.8 °F 27.7 °F 23.0 °F 65% 30.32 in 10.0 mi WNW 6.9 mph - N/A   Scattered Clouds
7:55 PM 33.8 °F 26.4 °F 23.0 °F 65% 30.33 in 10.0 mi NW 9.2 mph - N/A   Mostly Cloudy
8:15 PM 33.8 °F 23.5 °F 23.0 °F 65% 30.33 in 10.0 mi NW 16.1 mph 20.7 mph N/A   Mostly Cloudy
8:35 PM 32.0 °F 24.2 °F 23.0 °F 69% 30.32 in 10.0 mi WNW 9.2 mph - N/A   Scattered Clouds
8:55 PM 32.0 °F 23.6 °F 23.0 °F 69% 30.33 in 10.0 mi NW 10.4 mph - N/A   Clear
9:15 PM 32.0 °F 24.2 °F 23.0 °F 69% 30.34 in 10.0 mi NNW 9.2 mph - N/A   Scattered Clouds
9:35 PM 32.0 °F 23.0 °F 19.4 °F 60% 30.35 in 10.0 mi North 11.5 mph - N/A   Mostly Cloudy
9:55 PM 32.0 °F 22.5 °F 17.6 °F 55% 30.36 in 10.0 mi NNE 12.7 mph - N/A   Scattered Clouds
10:15 PM 28.4 °F 19.1 °F 15.8 °F 59% 30.36 in 10.0 mi NNE 10.4 mph - N/A   Clear
10:35 PM 28.4 °F 19.7 °F 12.2 °F 51% 30.37 in 10.0 mi North 9.2 mph - N/A   Clear
10:55 PM 24.8 °F 16.9 °F 12.2 °F 59% 30.37 in 10.0 mi North 6.9 mph - N/A   Clear
11:15 PM 23.0 °F 14.7 °F 12.2 °F 63% 30.38 in 10.0 mi North 6.9 mph - N/A   Clear
11:35 PM 23.0 °F 18.4 °F 12.2 °F 63% 30.38 in 10.0 mi North 3.5 mph - N/A   Clear
11:55 PM 23.0 °F 17.0 °F 12.2 °F 63% 30.38 in 10.0 mi NNW 4.6 mph - N/A   Clear